TKY91L LEVC-EGKK

Flight info

Callsign TKY91L
Flight time N/A
Altitude 34000
Route SOPET N608 MATEX Z475 OSLAP Y90 USKAR N863 GIROM DCT AGN DCT SECHE DCT UVELI DCT CNA DCT MANAK UY110 REVTU UP88 VASUX
Aircraft B738/M-SDE2E3FGHIRWXY/LB1

Departure

Time 2026-05-08 19:35
Airport Valencia Airport (LEVC)

Arrival

Time N/A
Airport London Gatwick Airport (EGKK)
Time Latitude Longitude Altitude Speed Heading
2026-05-08 19:03 39.49100 -0.47481 194 ft 0 kts 44°
2026-05-08 19:24 39.49099 -0.47481 194 ft 1 kts 44°
2026-05-08 19:24 39.49094 -0.47482 194 ft 4 kts 73°
2026-05-08 19:24 39.49081 -0.47504 210 ft 4 kts 50°
2026-05-08 19:25 39.49062 -0.47528 200 ft 4 kts 36°
2026-05-08 19:25 39.49039 -0.47543 210 ft 4 kts
2026-05-08 19:25 39.49020 -0.47535 207 ft 2 kts 297°
2026-05-08 19:25 39.49020 -0.47533 209 ft 1 kts 296°
2026-05-08 19:28 39.49021 -0.47536 207 ft 0 kts 296°
2026-05-08 19:28 39.49022 -0.47539 208 ft 1 kts 296°
2026-05-08 19:28 39.49036 -0.47575 208 ft 7 kts 296°
2026-05-08 19:28 39.49059 -0.47644 205 ft 9 kts 280°
2026-05-08 19:29 39.49047 -0.47726 209 ft 10 kts 257°
2026-05-08 19:29 39.49032 -0.47819 213 ft 12 kts 257°
2026-05-08 19:29 39.49040 -0.47925 209 ft 13 kts 300°
2026-05-08 19:29 39.49088 -0.48045 205 ft 17 kts 296°
2026-05-08 19:30 39.49141 -0.48184 208 ft 17 kts 296°
2026-05-08 19:30 39.49192 -0.48319 210 ft 17 kts 296°
2026-05-08 19:30 39.49243 -0.48452 214 ft 16 kts 296°
2026-05-08 19:30 39.49292 -0.48580 218 ft 16 kts 296°
2026-05-08 19:31 39.49343 -0.48709 220 ft 17 kts 298°
2026-05-08 19:31 39.49397 -0.48852 222 ft 18 kts 295°
2026-05-08 19:31 39.49453 -0.49002 220 ft 20 kts 296°
2026-05-08 19:31 39.49517 -0.49171 224 ft 21 kts 296°
2026-05-08 19:32 39.49581 -0.49338 226 ft 20 kts 296°
2026-05-08 19:32 39.49642 -0.49500 232 ft 20 kts 296°
2026-05-08 19:32 39.49702 -0.49656 237 ft 19 kts 296°
2026-05-08 19:32 39.49758 -0.49805 238 ft 18 kts 296°
2026-05-08 19:33 39.49798 -0.49933 243 ft 12 kts 259°
2026-05-08 19:33 39.49749 -0.49986 245 ft 7 kts 204°
2026-05-08 19:33 39.49724 -0.50001 246 ft 1 kts 204°
2026-05-08 19:33 39.49716 -0.50005 246 ft 4 kts 204°
2026-05-08 19:34 39.49661 -0.50030 246 ft 10 kts 182°
2026-05-08 19:34 39.49617 -0.49962 243 ft 11 kts 116°
2026-05-08 19:34 39.49520 -0.49705 234 ft 65 kts 116°
2026-05-08 19:34 39.49219 -0.48914 219 ft 128 kts 116°
2026-05-08 19:35 39.48750 -0.47671 267 ft 173 kts 115°
2026-05-08 19:35 39.48188 -0.46249 836 ft 185 kts 117°
2026-05-08 19:35 39.47560 -0.44758 1447 ft 194 kts 117°
2026-05-08 19:35 39.46789 -0.43337 2078 ft 201 kts 139°
2026-05-08 19:36 39.45446 -0.42544 2312 ft 223 kts 156°
2026-05-08 19:36 39.44242 -0.41274 2590 ft 236 kts 119°
2026-05-08 19:36 39.43528 -0.39268 3009 ft 250 kts 116°
2026-05-08 19:36 39.42677 -0.37285 3750 ft 253 kts 120°
2026-05-08 19:37 39.41727 -0.35337 4429 ft 259 kts 123°
2026-05-08 19:37 39.40730 -0.33391 5167 ft 261 kts 124°
2026-05-08 19:37 39.39760 -0.31375 5820 ft 268 kts 113°
2026-05-08 19:37 39.39581 -0.28965 6387 ft 279 kts 78°
2026-05-08 19:38 39.40521 -0.26783 7034 ft 285 kts 43°
2026-05-08 19:38 39.41600 -0.25801 7419 ft 289 kts 27°
2026-05-08 19:38 39.43509 -0.25020 8102 ft 288 kts
2026-05-08 19:38 39.45512 -0.24801 8822 ft 290 kts
2026-05-08 19:39 39.47538 -0.24568 9474 ft 294 kts
2026-05-08 19:39 39.49583 -0.24277 10141 ft 297 kts
2026-05-08 19:39 39.51691 -0.23929 10392 ft 316 kts
2026-05-08 19:39 39.53937 -0.23518 10550 ft 336 kts
2026-05-08 19:40 39.56320 -0.23054 10760 ft 353 kts
2026-05-08 19:40 39.58783 -0.22556 11236 ft 361 kts
2026-05-08 19:40 39.61268 -0.22045 11862 ft 364 kts
2026-05-08 19:40 39.63781 -0.21530 12438 ft 369 kts
2026-05-08 19:41 39.66327 -0.20931 13004 ft 377 kts 13°
2026-05-08 19:41 39.68671 -0.19325 13550 ft 389 kts 38°
2026-05-08 19:41 39.70649 -0.16891 14142 ft 394 kts 43°
2026-05-08 19:41 39.72600 -0.14350 14695 ft 399 kts 44°
2026-05-08 19:42 39.74573 -0.11776 15260 ft 404 kts 43°
2026-05-08 19:42 39.76547 -0.09227 15838 ft 408 kts 43°
2026-05-08 19:42 39.78584 -0.06625 16399 ft 412 kts 43°
2026-05-08 19:42 39.80647 -0.04002 16950 ft 417 kts 43°
2026-05-08 19:43 39.82781 -0.01408 17496 ft 421 kts 35°
2026-05-08 19:43 39.85347 0.00367 18005 ft 417 kts 14°
2026-05-08 19:43 39.88135 0.01431 18583 ft 418 kts 11°
2026-05-08 19:43 39.90940 0.02424 19157 ft 419 kts 11°
2026-05-08 19:44 39.93767 0.03418 19699 ft 421 kts 11°
2026-05-08 19:44 39.96604 0.04430 20190 ft 425 kts 11°
2026-05-08 19:44 39.99467 0.05471 20670 ft 429 kts 11°
2026-05-08 19:44 40.02352 0.06535 21136 ft 433 kts 11°
2026-05-08 19:45 40.05285 0.07624 21302 ft 444 kts 11°
2026-05-08 19:45 40.08251 0.08729 21492 ft 454 kts 11°
2026-05-08 19:45 40.11320 0.09876 21654 ft 464 kts 12°
2026-05-08 19:45 40.14454 0.11051 21808 ft 473 kts 12°
2026-05-08 19:46 40.17640 0.12248 21984 ft 478 kts 12°
2026-05-08 19:46 40.20834 0.13448 22168 ft 478 kts 12°
2026-05-08 19:46 40.27292 0.15863 22839 ft 486 kts 12°
2026-05-08 19:47 40.30553 0.17075 23126 ft 490 kts 12°
2026-05-08 19:47 40.33820 0.18294 23796 ft 483 kts 11°
2026-05-08 19:47 40.37009 0.19492 24699 ft 469 kts 11°
2026-05-08 19:47 40.40113 0.20659 25494 ft 461 kts 10°
2026-05-08 19:48 40.43209 0.21816 25841 ft 465 kts 10°
2026-05-08 19:48 40.46338 0.22982 26067 ft 471 kts 10°
2026-05-08 19:48 40.49500 0.24165 26372 ft 474 kts 10°
2026-05-08 19:48 40.52673 0.25357 26792 ft 474 kts 10°
2026-05-08 19:49 40.55805 0.26622 27162 ft 479 kts 15°
2026-05-08 19:49 40.58868 0.28454 27460 ft 488 kts 22°
2026-05-08 19:49 40.61883 0.30546 27770 ft 491 kts 23°
2026-05-08 19:49 40.64898 0.32699 28033 ft 495 kts 23°
2026-05-08 19:50 40.67944 0.34877 28159 ft 501 kts 23°
2026-05-08 19:50 40.71036 0.37069 28227 ft 508 kts 23°
2026-05-08 19:50 40.77333 0.41476 28563 ft 515 kts 22°
2026-05-08 19:51 40.80499 0.43681 28976 ft 513 kts 22°
2026-05-08 19:51 40.83650 0.45876 29460 ft 510 kts 22°
2026-05-08 19:51 40.86778 0.48055 29935 ft 507 kts 22°
2026-05-08 19:51 40.89897 0.50230 30320 ft 505 kts 21°
2026-05-08 19:52 40.93013 0.52403 30617 ft 506 kts 21°
2026-05-08 19:52 40.96098 0.54557 30860 ft 508 kts 21°
2026-05-08 19:52 40.99222 0.56742 31080 ft 509 kts 21°
2026-05-08 19:52 41.02360 0.58940 31294 ft 511 kts 21°
2026-05-08 19:53 41.05506 0.61149 31551 ft 512 kts 21°
2026-05-08 19:53 41.08654 0.63360 31799 ft 512 kts 21°
2026-05-08 19:53 41.11812 0.65574 32009 ft 513 kts 20°
2026-05-08 19:53 41.15049 0.67497 32235 ft 505 kts 10°
2026-05-08 19:54 41.18380 0.68866 32505 ft 500 kts
2026-05-08 19:54 41.21724 0.70127 32766 ft 499 kts
2026-05-08 19:54 41.25076 0.71361 32983 ft 501 kts
2026-05-08 19:54 41.28437 0.72608 33210 ft 502 kts
2026-05-08 19:55 41.31799 0.73880 33485 ft 503 kts
2026-05-08 19:55 41.35157 0.75173 33767 ft 503 kts
2026-05-08 19:55 41.38516 0.76483 34031 ft 503 kts
2026-05-08 19:55 41.41879 0.77802 33983 ft 504 kts
2026-05-08 19:56 41.48575 0.80445 33998 ft 498 kts
2026-05-08 19:56 41.55148 0.83040 34002 ft 495 kts
2026-05-08 19:57 41.61745 0.85637 34011 ft 494 kts
2026-05-08 19:57 41.68348 0.88244 34000 ft 494 kts
2026-05-08 19:58 41.74927 0.90849 34010 ft 493 kts
2026-05-08 19:58 41.81507 0.93459 34016 ft 492 kts
2026-05-08 19:59 41.88073 0.96072 33994 ft 490 kts
2026-05-08 19:59 41.94608 0.98676 33986 ft 489 kts
2026-05-08 20:00 42.01122 1.01282 34000 ft 487 kts 10°
2026-05-08 20:00 42.07560 1.03856 33982 ft 485 kts 10°
2026-05-08 20:01 42.14044 1.06099 33994 ft 475 kts
2026-05-08 20:01 42.20507 1.06099 34055 ft 461 kts 348°
2026-05-08 20:02 42.26899 1.05278 34044 ft 461 kts 348°
2026-05-08 20:02 42.33305 1.04520 34035 ft 462 kts 349°
2026-05-08 20:03 42.39730 1.03814 34038 ft 463 kts 349°
2026-05-08 20:03 42.46194 1.03103 34053 ft 470 kts 350°
2026-05-08 20:04 42.52768 1.02391 34058 ft 478 kts 350°
2026-05-08 20:04 42.59408 1.01674 34044 ft 479 kts 350°
2026-05-08 20:05 42.66022 1.00988 34043 ft 480 kts 351°
2026-05-08 20:05 42.72687 1.00235 34037 ft 481 kts 350°
2026-05-08 20:06 42.79380 0.99488 34001 ft 483 kts 350°
2026-05-08 20:06 42.86082 0.98754 33990 ft 484 kts 350°
2026-05-08 20:07 42.92769 0.98018 33986 ft 479 kts 350°
2026-05-08 20:07 42.99388 0.97298 34001 ft 477 kts 350°
2026-05-08 20:08 43.05989 0.96572 33994 ft 475 kts 350°
2026-05-08 20:08 43.12576 0.95844 33974 ft 474 kts 350°
2026-05-08 20:09 43.19103 0.95120 33973 ft 473 kts 350°
2026-05-08 20:09 43.25669 0.94391 33986 ft 474 kts 351°
2026-05-08 20:10 43.32253 0.93657 33974 ft 475 kts 351°
2026-05-08 20:10 43.38866 0.92918 33984 ft 479 kts 351°
2026-05-08 20:11 43.45542 0.92171 33981 ft 482 kts 351°
2026-05-08 20:11 43.52245 0.91422 33966 ft 483 kts 351°
2026-05-08 20:12 43.58858 0.90686 33952 ft 471 kts 351°
2026-05-08 20:12 43.65358 0.89955 33959 ft 465 kts 351°
2026-05-08 20:13 43.71767 0.89230 33971 ft 465 kts 351°
2026-05-08 20:13 43.78129 0.88508 33972 ft 471 kts 351°
2026-05-08 20:14 43.84724 0.87760 33972 ft 480 kts 352°
2026-05-08 20:14 43.91194 0.85896 33948 ft 469 kts 334°
2026-05-08 20:15 43.97019 0.82164 33942 ft 457 kts 330°
2026-05-08 20:15 44.02703 0.78382 33953 ft 454 kts 330°
2026-05-08 20:16 44.08419 0.74640 33951 ft 453 kts 331°
2026-05-08 20:16 44.14138 0.70927 33943 ft 454 kts 331°
2026-05-08 20:17 44.19873 0.67203 33944 ft 455 kts 331°
2026-05-08 20:17 44.25624 0.63459 33943 ft 457 kts 332°
2026-05-08 20:18 44.31403 0.59687 33950 ft 459 kts 332°
2026-05-08 20:18 44.37178 0.55909 33949 ft 461 kts 332°
2026-05-08 20:19 44.43003 0.52091 33954 ft 463 kts 332°
2026-05-08 20:19 44.48850 0.48233 33948 ft 466 kts 332°
2026-05-08 20:20 44.54729 0.44328 33945 ft 468 kts 332°
2026-05-08 20:20 44.60614 0.40409 33946 ft 470 kts 332°
2026-05-08 20:21 44.66586 0.36426 33958 ft 477 kts 333°
2026-05-08 20:21 44.72598 0.32408 33941 ft 479 kts 333°
2026-05-08 20:22 44.78611 0.28382 33927 ft 475 kts 333°
2026-05-08 20:22 44.83539 0.25075 33931 ft 470 kts 333°
2026-05-08 20:23 44.90383 0.20470 33943 ft 468 kts 333°
2026-05-08 20:23 44.96310 0.16469 33954 ft 476 kts 333°
2026-05-08 20:24 45.02336 0.12395 33941 ft 483 kts 333°
2026-05-08 20:24 45.08443 0.08260 33948 ft 490 kts 333°
2026-05-08 20:25 45.13573 0.04781 33944 ft 492 kts 333°
2026-05-08 20:25 45.19698 0.00618 33925 ft 484 kts 334°
2026-05-08 20:26 45.25781 -0.03529 33949 ft 485 kts 334°
2026-05-08 20:26 45.31881 -0.07697 33944 ft 487 kts 334°
2026-05-08 20:27 45.37953 -0.11857 33939 ft 488 kts 334°
2026-05-08 20:27 45.44072 -0.16058 33938 ft 489 kts 334°
2026-05-08 20:28 45.50207 -0.20280 33945 ft 490 kts 334°
2026-05-08 20:28 45.56347 -0.24517 33941 ft 490 kts 334°
2026-05-08 20:29 45.62487 -0.28764 33937 ft 490 kts 334°
2026-05-08 20:29 45.68383 -0.33622 33939 ft 489 kts 322°
2026-05-08 20:30 45.73715 -0.39699 33933 ft 489 kts 320°
2026-05-08 20:30 45.78971 -0.45783 33925 ft 489 kts 321°
2026-05-08 20:31 45.84287 -0.51857 33941 ft 488 kts 321°
2026-05-08 20:31 45.89616 -0.57907 33937 ft 488 kts 321°
2026-05-08 20:32 45.94944 -0.63964 33934 ft 488 kts 321°
2026-05-08 20:32 46.00265 -0.70035 33932 ft 488 kts 321°
2026-05-08 20:33 46.05581 -0.76119 33933 ft 488 kts 321°
2026-05-08 20:33 46.10891 -0.82211 33944 ft 489 kts 321°
2026-05-08 20:34 46.16183 -0.88298 33941 ft 490 kts 321°
2026-05-08 20:35 46.24180 -0.97519 33944 ft 491 kts 321°
2026-05-08 20:35 46.29520 -1.03687 33938 ft 491 kts 321°
2026-05-08 20:36 46.34861 -1.09873 33940 ft 492 kts 321°
2026-05-08 20:36 46.40206 -1.16081 33943 ft 491 kts 321°
2026-05-08 20:37 46.45537 -1.22290 33963 ft 491 kts 321°